Location: Unspecified
(0.0000°N, 0.0000°E)
Time: 11:21:07
(UTC+00:00)

Altair - Pass Details

Date: 25 November 2019
Orbit: 1502 x 1682 km, 47.2° (Epoch: 07 December)

Event Time Altitude Azimuth Distance (km) Brightness Sun altitude
Rises 12:03:11 0° 285° (WNW) 4,783 10.1 68.9°
Reaches altitude 10° 12:07:25 10° 269° (W) 3,832 9.8 68.7°
Maximum altitude 12:13:58 20° 226° (SW) 3,163 9.8 68.2°
Drops below altitude 10° 12:20:42 10° 183° (S) 3,918 10.1 67.7°
Sets 12:25:11 0° 167° (SSE) 4,924 10.4 67.2°
